NOAA NWS Hourly Roundups by Site

Regional Weather Roundup for Omaha, NE

To Select Another Site Choose from List

Select Site:  

897
ASUS43 KOAX 190313
RWRNE

WEATHER ROUNDUP FOR NEBRASKA
NATIONAL WEATHER SERVICE OMAHA NE
1000 PM CDT TUE JUN 18 2024

NOTES: SATELLITE DATA IS BEING USED TO AUGMENT CLOUD COVER ABOVE
       12000 FEET.
       "FAIR" INDICATES FEW OR NO CLOUDS BELOW 12,000 FEET WITH NO
       SIGNIFICANT WEATHER AND/OR OBSTRUCTIONS TO VISIBILITY.


NEZ001>004-019>022-054>056-190400-
NEBRASKA PANHANDLE

CITY           SKY/WX    TMP DP  RH WIND       PRES   REMARKS
SCOTTSBLUFF      N/A     63  26  24 N8        30.04R
ALLIANCE       CLEAR     56  35  45 N8        30.03R
CHADRON        CLEAR     57  36  45 NW7       30.03R
GORDON         CLEAR     57  40  52 NE12      30.04R
KIMBALL        PTCLDY    58  33  39 NE5       30.07R
SIDNEY         PTCLDY    58  33  39 E8        30.04R
$$

NEZ057>060-069>072-079>082-190400-
SOUTHWEST NEBRASKA

CITY           SKY/WX    TMP DP  RH WIND       PRES   REMARKS
NORTH PLATTE   PTCLDY    64  52  64 NE8       29.99R
GRANT          CLEAR     59  45  58 N10       30.01R
IMPERIAL       CLEAR     63  43  48 N10       30.00R
LEXINGTON      CLOUDY    67  56  66 NE12      29.99R
MCCOOK         CLOUDY    70  58  65 NE15      29.94R
OGALLALA       CLEAR     64  45  51 N8        30.03R
$$

NEZ005>010-023>029-035>040-094-190400-
NORTH CENTRAL NEBRASKA

CITY           SKY/WX    TMP DP  RH WIND       PRES   REMARKS
VALENTINE      CLEAR     62  44  51 N8        30.02R
AINSWORTH      PTCLDY    57  49  74 N5        30.02R
O`NEILL        MOCLDY    62  56  80 CALM      30.00R
ORD            CLOUDY    64  55  72 N7        29.97R
THEDFORD       CLEAR     60  47  64 NE3       30.03R
$$

NEZ041-046>049-061>064-073>077-083>087-190400-
SOUTH CENTRAL NEBRASKA

CITY           SKY/WX    TMP DP  RH WIND       PRES   REMARKS
GRAND ISLAND   CLOUDY    64  61  90 N10       29.95R
AURORA         CLOUDY    63  60  93 N8        29.94R
HASTINGS       CLOUDY    64  61  90 NE9       29.96R
HEBRON         CLOUDY    67  64  91 NE3       29.91R
HOLDREGE       CLOUDY    66  61  82 NE9       29.96R
KEARNEY        CLOUDY    66  59  78 N10       29.97R
YORK           CLOUDY    61  59  94 N12G20    29.94R
$$

NEZ011>018-030>034-042>045-190400-
NORTHEAST NEBRASKA

CITY           SKY/WX    TMP DP  RH WIND       PRES   REMARKS
NORFOLK        CLOUDY    65  61  87 NW5       29.96R
ALBION         CLOUDY    64  62  93 CALM      29.97R
BLAIR          CLOUDY    64  63  97 N12       29.91R
COLUMBUS       CLOUDY    64  61  90 N9        29.94R
FREMONT        CLOUDY    65  60  84 N10       29.93R
TEKAMAH        CLOUDY    67  63  87 N12       29.93R
$$

NEZ050>053-065>068-078-088>093-190400-
SOUTHEAST NEBRASKA

CITY           SKY/WX    TMP DP  RH WIND       PRES   REMARKS
LINCOLN        LGT RAIN  67  64  90 N13G22    29.92R
OMAHA EPPLEY   LGT RAIN  67  66  97 N9        29.91R
BEATRICE       LGT RAIN  68  65  89 W8        29.91R
FALLS CITY     HVY RAIN  71  66  84 W20G51    29.96R
NEBRASKA CITY  TSTM      74  72  94 S26G33    29.89R
PLATTSMOUTH    CLOUDY    67  66  94 NE8       29.87F
$$

NEZ044-045-051>053-067-190400-
OMAHA AREA

CITY           SKY/WX    TMP DP  RH WIND       PRES   REMARKS
OMAHA EPPLEY   LGT RAIN  67  66  97 N9        29.91R
BLAIR          CLOUDY    64  63  97 N12       29.91R
FREMONT        CLOUDY    65  60  84 N10       29.93R
MILLARD        CLOUDY    66  63  90 N3        29.90R
OFFUTT AFB     CLOUDY    70  66  88 CALM      29.88R
PLATTSMOUTH    CLOUDY    67  66  94 NE8       29.87F
WAHOO          CLOUDY    65  62  90 N13G18    29.93R
$$



 

View Past Reports for Omaha, NE.

Products Courtesy of NOAA-NWS
NWS Information Parsing Script by Ken True at Saratoga Weather - Script by SE Lincoln Weather.